Latest Weather Observations for Campania

IDT60901

Issued at 2:55 pm EST Thursday 24 April 2014 (issued every 10 minutes, with the page automatically refreshed every 10 minutes)

About weather observations | Map of Hobart area stations | Latest observations for Hobart area | Other Formats
Station Details ID: 094212 Name: CAMPANIA (KINCORA) Lat: -42.69 Lon: 147.43 Height: 45.0 m
Data from the previous 72 hours. | See also: Recent months at Campania
Date/Time
EST
Tmp

°C
App
Tmp
°C
Dew
Point
°C
Rel
Hum
%
Delta-T

°C
Wind Press
QNH
hPa
Press
MSL
hPa
Rain
since
9 am
mm
Dir
 
Spd
km/h
Gust
km/h
Spd
kts
Gust
kts
24/02:30pm 10.1 5.4 2.9 61 3.1 W 17 28 9 15 - - 0.0
24/02:00pm 10.1 4.1 3.2 62 3.0 WSW 24 33 13 18 - - 0.0
24/01:36pm 9.8 2.8 4.0 67 2.6 WSW 30 48 16 26 - - 0.0
24/01:30pm 9.6 1.6 3.6 66 2.6 WSW 35 48 19 26 - - 0.0
24/01:00pm 11.2 4.2 2.0 53 3.9 W 28 46 15 25 - - 0.0
24/12:59pm 11.2 4.3 2.5 55 3.8 W 28 46 15 25 - - 0.0
24/12:30pm 9.4 4.9 4.4 71 2.2 WNW 17 30 9 16 - - 0.0
24/12:00pm 8.6 0.5 3.4 70 2.2 W 35 57 19 31 - - 0.0
24/11:55am 9.0 1.4 3.0 66 2.6 W 32 56 17 30 - - 0.0
24/11:30am 11.0 4.1 2.8 57 3.6 W 28 43 15 23 - - 0.0
24/11:00am 10.7 4.3 3.0 59 3.3 WNW 26 37 14 20 - - 0.0
24/10:30am 10.5 4.4 2.8 59 3.3 WSW 24 41 13 22 - - 0.0
24/10:12am 10.8 3.9 2.6 57 3.5 W 28 54 15 29 - - 0.0
24/10:00am 11.5 5.2 3.5 58 3.5 W 26 44 14 24 - - 0.0
24/09:47am 11.6 4.9 3.4 57 3.6 W 28 50 15 27 - - 0.0
24/09:30am 11.3 6.5 4.7 64 3.0 W 19 33 10 18 - - 0.0
24/09:00am 11.2 6.1 4.2 62 3.1 W 20 32 11 17 - - 3.4
24/08:30am 10.9 6.9 4.8 66 2.8 WNW 15 24 8 13 - - 3.4
24/08:00am 10.3 6.4 5.3 71 2.3 NW 15 20 8 11 - - 3.4
24/07:30am 9.6 6.4 5.0 73 2.1 WNW 11 17 6 9 - - 3.4
24/07:00am 9.7 6.5 5.1 73 2.1 WNW 11 15 6 8 - - 3.4
24/06:30am 9.8 6.3 5.4 74 2.0 NNW 13 20 7 11 - - 3.4
24/06:00am 9.5 7.1 6.9 84 1.2 NNW 9 13 5 7 - - 3.4
24/05:30am 9.8 4.6 5.4 74 2.0 NW 22 30 12 16 - - 3.2
24/05:00am 9.8 5.8 6.7 81 1.5 W 17 24 9 13 - - 3.0
24/04:46am 10.0 5.8 7.6 85 1.1 W 19 54 10 29 - - 2.2
24/04:30am 10.3 2.2 6.8 79 1.7 WSW 39 61 21 33 - - 0.8
24/04:28am 11.1 3.4 7.0 76 2.0 WSW 37 61 20 33 - - 0.4
24/04:00am 12.7 6.7 7.2 69 2.7 NNE 28 35 15 19 - - 0.0
24/03:30am 13.1 7.5 7.3 68 2.8 NNE 26 35 14 19 - - 0.0
24/03:00am 12.5 7.3 7.4 71 2.5 N 24 32 13 17 - - 0.0
24/02:30am 13.3 7.3 6.9 65 3.1 N 28 41 15 22 - - 0.0
24/02:00am 13.2 7.5 6.8 65 3.1 N 26 37 14 20 - - 0.0
24/01:30am 12.8 8.0 7.3 69 2.7 NNW 22 32 12 17 - - 0.0
24/01:00am 11.5 8.8 7.4 76 2.0 NNW 11 20 6 11 - - 0.0
24/12:30am 12.1 8.6 7.4 73 2.3 NNW 15 28 8 15 - - 0.0
24/12:00am 11.7 9.8 7.4 75 2.1 NNW 7 13 4 7 - - 0.0
 
Date/Time
EST
Tmp

°C
App
Tmp
°C
Dew
Point
°C
Rel
Hum
%
Delta-T

°C
Wind Press
QNH
hPa
Press
MSL
hPa
Rain
since
9 am
mm
Dir
 
Spd
km/h
Gust
km/h
Spd
kts
Gust
kts
23/11:30pm 12.0 9.3 7.5 74 2.2 NNW 11 15 6 8 - - 0.0
23/11:00pm 11.8 8.8 7.7 76 2.0 N 13 20 7 11 - - 0.0
23/10:30pm 11.7 7.3 7.6 76 2.0 N 20 28 11 15 - - 0.0
23/10:00pm 12.4 6.9 7.7 73 2.3 N 26 35 14 19 - - 0.0
23/09:30pm 12.3 7.7 8.2 76 2.0 N 22 32 12 17 - - 0.0
23/09:00pm 11.7 7.3 7.6 76 2.0 N 20 26 11 14 - - 0.0
23/08:30pm 12.8 7.6 7.3 69 2.7 N 24 33 13 18 - - 0.0
23/08:00pm 13.3 8.5 7.3 67 2.9 N 22 32 12 17 - - 0.0
23/07:30pm 12.7 8.8 7.0 68 2.8 N 17 24 9 13 - - 0.0
23/07:00pm 13.6 8.8 7.4 66 3.0 N 22 33 12 18 - - 0.0
23/06:30pm 13.5 9.5 6.8 64 3.2 N 17 26 9 14 - - 0.0
23/06:00pm 13.7 10.1 6.6 62 3.4 N 15 22 8 12 - - 0.0
23/05:30pm 14.2 10.4 5.6 56 4.1 N 15 19 8 10 - - 0.0
23/05:00pm 15.8 13.6 6.0 52 4.7 N 7 9 4 5 - - 0.0
23/04:30pm 16.6 13.6 5.9 49 5.2 N 11 13 6 7 - - 0.0
23/04:00pm 16.6 13.2 5.9 49 5.2 N 13 20 7 11 - - 0.0
23/03:30pm 16.8 13.4 5.7 48 5.4 NNW 13 17 7 9 - - 0.0
23/03:00pm 16.8 12.9 5.4 47 5.5 NW 15 20 8 11 - - 0.0
23/02:30pm 16.8 13.3 5.4 47 5.5 NW 13 17 7 9 - - 0.0
23/02:00pm 16.9 13.0 5.5 47 5.5 NW 15 20 8 11 - - 0.0
23/01:30pm 17.4 13.0 4.7 43 6.1 WNW 17 28 9 15 - - 0.0
23/01:00pm 17.1 12.6 4.4 43 6.0 NW 17 32 9 17 - - 0.0
23/12:30pm 17.2 13.1 4.5 43 6.0 NW 15 24 8 13 - - 0.0
23/12:00pm 16.9 12.5 4.6 44 5.8 NW 17 20 9 11 - - 0.0
23/11:30am 16.4 12.7 4.4 45 5.6 NW 13 24 7 13 - - 0.0
23/11:00am 15.9 10.8 4.0 45 5.5 NW 20 26 11 14 - - 0.0
23/10:30am 15.5 11.4 4.5 48 5.1 N 15 22 8 12 - - 0.0
23/10:00am 14.9 10.2 5.1 52 4.6 N 19 22 10 12 - - 0.0
23/09:30am 14.2 10.1 6.1 58 3.9 NNE 17 20 9 11 - - 0.0
23/09:00am 13.4 10.0 6.0 61 3.5 N 13 17 7 9 - - 0.0
23/08:30am 11.9 9.8 6.8 71 2.4 NW 7 9 4 5 - - 0.0
23/08:00am 10.4 7.2 6.9 79 1.7 N 13 17 7 9 - - 0.0
23/07:30am 8.2 5.5 5.7 84 1.1 NW 9 13 5 7 - - 0.0
23/07:00am 5.7 3.3 4.2 90 0.6 NNW 6 11 3 6 - - 0.0
23/06:30am 7.2 4.4 5.0 86 1.0 N 9 13 5 7 - - 0.0
23/06:00am 8.0 5.3 5.6 85 1.1 N 9 11 5 6 - - 0.0
23/05:30am 7.6 5.2 5.4 86 1.0 N 7 13 4 7 - - 0.0
23/05:00am 7.7 4.9 5.3 85 1.1 N 9 11 5 6 - - 0.0
23/04:30am 7.9 4.8 5.7 86 1.0 NNW 11 13 6 7 - - 0.0
23/04:00am 6.9 4.7 5.4 90 0.7 NE 6 7 3 4 - - 0.0
23/03:30am 7.0 4.5 4.8 86 1.0 NW 7 9 4 5 - - 0.0
23/03:00am 7.9 5.6 5.7 86 1.0 NNE 7 11 4 6 - - 0.0
23/02:30am 7.8 5.6 5.4 85 1.1 W 6 13 3 7 - - 0.0
23/02:00am 9.4 6.0 5.9 79 1.6 NE 13 15 7 8 - - 0.0
23/01:30am 8.1 5.7 5.4 83 1.2 N 7 11 4 6 - - 0.0
23/01:00am 8.0 4.8 5.3 83 1.2 NW 11 13 6 7 - - 0.0
23/12:30am 8.0 5.3 5.6 85 1.1 N 9 13 5 7 - - 0.0
23/12:00am 9.1 7.1 6.4 83 1.3 NE 6 9 3 5 - - 0.0
 
Date/Time
EST
Tmp

°C
App
Tmp
°C
Dew
Point
°C
Rel
Hum
%
Delta-T

°C
Wind Press
QNH
hPa
Press
MSL
hPa
Rain
since
9 am
mm
Dir
 
Spd
km/h
Gust
km/h
Spd
kts
Gust
kts
22/11:30pm 8.8 6.7 6.6 86 1.0 NW 7 9 4 5 - - 0.0
22/11:00pm 8.1 5.8 5.9 86 1.0 NW 7 11 4 6 - - 0.0
22/10:30pm 8.5 5.4 5.4 81 1.4 N 11 15 6 8 - - 0.0
22/10:00pm 10.2 7.5 5.8 74 2.0 N 9 17 5 9 - - 0.0
22/09:30pm 12.2 8.9 6.3 67 2.8 W 13 20 7 11 - - 0.0
22/09:00pm 12.8 10.0 6.8 67 2.9 W 11 15 6 8 - - 0.0
22/08:30pm 13.0 8.5 6.8 66 3.0 WSW 20 30 11 16 - - 0.0
22/08:00pm 13.5 10.2 6.4 62 3.4 WSW 13 17 7 9 - - 0.0
22/07:30pm 13.8 11.4 5.4 57 4.0 NNW 7 17 4 9 - - 0.0
22/07:00pm 13.7 10.4 4.6 54 4.2 N 11 19 6 10 - - 0.0
22/06:30pm 12.6 10.2 4.1 56 3.8 N 6 11 3 6 - - 0.0
22/06:00pm 12.1 9.6 4.6 60 3.4 NNW 7 11 4 6 - - 0.0
22/05:30pm 13.0 9.5 3.4 52 4.3 NNW 11 15 6 8 - - 0.0
22/05:00pm 15.0 10.7 3.5 46 5.2 NW 15 24 8 13 - - 0.0
22/04:30pm 15.8 10.2 3.6 44 5.6 WNW 22 30 12 16 - - 0.0
22/04:00pm 16.2 10.3 3.9 44 5.7 NW 24 33 13 18 - - 0.0
22/03:30pm 16.1 11.1 4.5 46 5.5 WNW 20 41 11 22 - - 0.0
22/03:00pm 15.8 10.1 5.1 49 5.1 W 24 35 13 19 - - 0.0
22/02:30pm 16.0 9.7 5.6 50 5.0 W 28 46 15 25 - - 0.0
22/02:05pm 16.7 10.6 6.8 52 4.9 W 28 46 15 25 - - 0.0
22/02:00pm 16.8 11.0 6.3 50 5.1 W 26 39 14 21 - - 0.0
22/01:30pm 17.7 13.8 8.6 55 4.7 WSW 19 30 10 16 - - 0.0
22/01:00pm 17.6 14.0 8.5 55 4.7 WSW 17 32 9 17 - - 0.0
22/12:30pm 17.7 14.7 9.3 58 4.4 SW 15 24 8 13 - - 0.0
22/12:00pm 18.1 12.1 8.7 54 4.9 W 30 41 16 22 - - 0.0
22/11:41am 19.3 13.1 7.7 47 5.9 NW 30 48 16 26 - - 0.0
22/11:30am 19.1 12.7 8.4 50 5.6 NW 32 44 17 24 - - 0.0
22/11:06am 18.8 12.9 7.3 47 5.8 NW 28 46 15 25 - - 0.0
22/11:00am 19.1 14.1 8.1 49 5.7 NW 24 35 13 19 - - 0.0
22/10:30am 17.7 11.9 8.0 53 4.9 NW 28 39 15 21 - - 0.0
22/10:15am 17.8 12.1 8.4 54 4.8 NW 28 48 15 26 - - 0.0
22/10:00am 17.7 12.4 8.3 54 4.8 NW 26 39 14 21 - - 0.0
22/09:30am 17.6 12.8 8.7 56 4.6 NW 24 35 13 19 - - 0.0
22/09:00am 17.8 13.8 8.9 56 4.6 NNW 20 37 11 20 - - 3.4
22/08:30am 17.7 14.3 9.1 57 4.5 N 17 24 9 13 - - 3.4
22/08:00am 17.4 14.7 8.8 57 4.4 NNW 13 22 7 12 - - 3.4
22/07:30am 17.1 14.0 9.0 59 4.2 NNW 15 26 8 14 - - 3.4
22/07:00am 17.5 14.9 9.2 58 4.3 NW 13 19 7 10 - - 3.4
22/06:30am 16.4 13.2 9.8 65 3.5 NW 17 24 9 13 - - 3.4
22/06:00am 16.6 14.6 10.0 65 3.5 WNW 11 19 6 10 - - 3.4
22/05:30am 15.7 13.6 9.8 68 3.1 NNW 11 13 6 7 - - 3.4
22/05:00am 14.8 13.1 9.8 72 2.6 NNW 9 15 5 8 - - 3.4
22/04:30am 13.7 12.5 9.7 77 2.1 N 6 11 3 6 - - 3.4
22/04:00am 13.7 12.6 9.9 78 2.0 NE 6 9 3 5 - - 3.4
22/03:30am 12.7 11.5 9.5 81 1.6 NE 6 9 3 5 - - 3.4
22/03:00am 13.4 12.3 10.0 80 1.8 W 6 17 3 9 - - 3.4
22/02:30am 13.8 11.5 10.4 80 1.8 N 13 22 7 12 - - 3.4
22/02:00am 13.7 10.1 10.7 82 1.6 N 20 30 11 16 - - 3.4
22/01:30am 13.5 9.1 10.5 82 1.6 N 24 33 13 18 - - 3.4
22/01:00am 13.3 9.7 10.5 83 1.5 N 20 28 11 15 - - 3.4
22/12:30am 13.1 9.7 10.6 85 1.3 N 19 22 10 12 - - 3.4
22/12:00am 13.0 9.6 10.5 85 1.3 N 19 24 10 13 - - 3.4
 
Date/Time
EST
Tmp

°C
App
Tmp
°C
Dew
Point
°C
Rel
Hum
%
Delta-T

°C
Wind Press
QNH
hPa
Press
MSL
hPa
Rain
since
9 am
mm
Dir
 
Spd
km/h
Gust
km/h
Spd
kts
Gust
kts
21/11:30pm 11.5 9.4 9.9 90 0.8 N 11 13 6 7 - - 3.4
21/11:00pm 11.4 10.0 9.7 89 0.9 NNW 7 13 4 7 - - 3.4
21/10:30pm 11.3 8.3 9.4 88 1.0 N 15 26 8 14 - - 3.4
21/10:00pm 11.4 8.9 9.7 89 0.9 N 13 20 7 11 - - 2.8
21/09:30pm 10.5 10.4 9.4 93 0.6 CALM 0 0 0 0 - - 2.4
21/09:00pm 10.5 9.1 9.4 93 0.6 N 7 11 4 6 - - 2.2
21/08:30pm 10.8 8.6 9.2 90 0.8 N 11 13 6 7 - - 1.6
21/08:00pm 11.2 9.7 9.1 87 1.0 W 7 13 4 7 - - 0.8
21/07:30pm 11.1 9.1 8.8 86 1.1 NNE 9 13 5 7 - - 0.4
21/07:00pm 11.2 8.3 8.2 82 1.5 NNW 13 17 7 9 - - 0.0
21/06:30pm 11.6 8.3 7.9 78 1.8 NNW 15 22 8 12 - - 0.0
21/06:00pm 11.7 8.3 7.6 76 2.0 N 15 20 8 11 - - 0.0
21/05:30pm 12.4 8.8 6.9 69 2.6 N 15 24 8 13 - - 0.0
21/05:00pm 12.5 10.0 6.5 67 2.9 N 9 11 5 6 - - 0.0
21/04:30pm 12.7 10.0 5.6 62 3.3 N 9 15 5 8 - - 0.0
21/04:00pm 12.7 9.1 5.1 60 3.5 NNW 13 20 7 11 - - 0.0
21/03:30pm 12.7 8.7 4.7 58 3.7 N 15 20 8 11 - - 0.0
21/03:00pm 13.4 8.0 4.3 54 4.2 N 22 32 12 17 - - 0.0

Latest Capital City Observations: Canberra | Sydney | Melbourne | Brisbane | Adelaide | Perth | Hobart | Darwin

Other Formats:

Comma delimited format used in spreadsheet applications
http://www.bom.gov.au/fwo/IDT60901/IDT60901.95972.axf

JavaScript Object Notation format (JSON) in row-major order
http://www.bom.gov.au/fwo/IDT60901/IDT60901.95972.json